| time (UTC) | temp F | wind direction | speed knots | gust knots | rain 1hr in | rain 24hr in | rain mn in | humidity % | barometer mb |
| 20260504151002 | 70 | 242 | 2.6 | 13.0 | 0.00 | 0.00 | 0.00 | 57 | 1026.8 |
| 20260504150500 | 70 | 244 | 5.2 | 13.0 | 0.00 | 0.00 | 0.00 | 55 | 1026.5 |
| 20260504140936 | 66 | 235 | 3.5 | 11.3 | 0.00 | 0.00 | 0.00 | 59 | 1026.9 |
| 20260504140435 | 65 | 244 | 3.5 | 11.3 | 0.00 | 0.00 | 0.00 | 61 | 1026.9 |
| 20260504130343 | 61 | 222 | 4.3 | 9.6 | 0.00 | 0.00 | 0.00 | 61 | 1027.0 |
| 20260504120253 | 58 | 216 | 1.7 | 9.6 | 0.00 | 0.00 | 0.00 | 65 | 1026.6 |
| 20260504110222 | 55 | 197 | 0.0 | 9.6 | 0.00 | 0.00 | 0.00 | 66 | 1026.2 |
| 20260504081003 | 56 | 192 | 0.9 | 9.6 | 0.00 | 0.00 | 0.00 | 64 | 1025.9 |
| 20260504080502 | 56 | 193 | 0.0 | 9.6 | 0.00 | 0.00 | 0.00 | 64 | 1026.0 |
| 20260504050304 | 56 | 200 | 0.0 | 9.6 | 0.00 | 0.00 | 0.00 | 62 | 1027.6 |
| 20260504045803 | 56 | 200 | 0.0 | 9.6 | 0.00 | 0.00 | 0.00 | 62 | 1027.5 |
| 20260504045304 | 56 | 200 | 0.0 | 9.6 | 0.00 | 0.00 | 0.00 | 62 | 1027.7 |
| 20260504044801 | 57 | 198 | 0.0 | 9.6 | 0.00 | 0.00 | 0.00 | 62 | 1027.4 |
| 20260504044300 | 56 | 200 | 0.9 | 9.6 | 0.00 | 0.00 | 0.00 | 61 | 1027.6 |
| 20260504043759 | 57 | 198 | 0.0 | 9.6 | 0.00 | 0.00 | 0.00 | 62 | 1027.4 |
| 20260504043258 | 57 | 198 | 0.0 | 9.6 | 0.00 | 0.00 | 0.00 | 61 | 1027.5 |
| 20260504042757 | 57 | 205 | 0.0 | 9.6 | 0.00 | 0.00 | 0.00 | 60 | 1027.5 |
| 20260504042256 | 57 | 205 | 0.0 | 9.6 | 0.00 | 0.00 | 0.00 | 60 | 1027.3 |
| 20260504041752 | 56 | 212 | 0.9 | 9.6 | 0.00 | 0.00 | 0.00 | 60 | 1027.5 |
| 20260504041251 | 56 | 212 | 0.0 | 9.6 | 0.00 | 0.00 | 0.00 | 61 | 1027.5 |
| 20260504040750 | 56 | 203 | 0.9 | 9.6 | 0.00 | 0.00 | 0.00 | 62 | 1027.3 |
| 20260504040249 | 56 | 195 | 0.0 | 9.6 | 0.00 | 0.00 | 0.00 | 62 | 1027.3 |
| 20260504035748 | 56 | 199 | 0.0 | 9.6 | 0.00 | 0.00 | 0.00 | 62 | 1027.5 |
| 20260504034731 | 57 | 200 | 0.9 | 9.6 | 0.00 | 0.00 | 0.00 | 62 | 1027.3 |
| 20260504033158 | 57 | 204 | 0.0 | 9.6 | 0.00 | 0.00 | 0.00 | 59 | 1027.9 |
| 20260504032657 | 58 | 207 | 0.9 | 9.6 | 0.00 | 0.00 | 0.00 | 59 | 1027.8 |
| 20260504032156 | 58 | 203 | 0.9 | 9.6 | 0.00 | 0.00 | 0.00 | 58 | 1028.1 |
| 20260504031655 | 58 | 195 | 0.0 | 9.6 | 0.00 | 0.00 | 0.00 | 57 | 1028.1 |
| 20260504031154 | 58 | 195 | 0.0 | 9.6 | 0.00 | 0.00 | 0.00 | 57 | 1028.1 |
| 20260504030653 | 58 | 209 | 0.0 | 9.6 | 0.00 | 0.00 | 0.00 | 56 | 1028.0 |
| 20260504030152 | 59 | 212 | 0.0 | 9.6 | 0.00 | 0.00 | 0.00 | 56 | 1028.2 |
| 20260504025651 | 59 | 207 | 0.0 | 9.6 | 0.00 | 0.00 | 0.00 | 56 | 1028.3 |
| 20260504025150 | 59 | 208 | 0.0 | 9.6 | 0.00 | 0.00 | 0.00 | 56 | 1028.1 |
| 20260504024126 | 59 | 207 | 0.9 | 9.6 | 0.00 | 0.00 | 0.00 | 57 | 1028.2 |
| 20260504023109 | 59 | 220 | 1.7 | 9.6 | 0.00 | 0.00 | 0.00 | 56 | 1028.2 |
| 20260504022608 | 59 | 224 | 0.9 | 9.6 | 0.00 | 0.00 | 0.00 | 55 | 1028.3 |
| 20260504021551 | 60 | 228 | 1.7 | 9.6 | 0.00 | 0.00 | 0.00 | 56 | 1028.2 |
| 20260504021050 | 60 | 235 | 0.9 | 9.6 | 0.00 | 0.00 | 0.00 | 56 | 1027.8 |
| 20260504020549 | 60 | 234 | 1.7 | 9.6 | 0.00 | 0.00 | 0.00 | 55 | 1027.7 |
| 20260504020048 | 60 | 245 | 0.9 | 9.6 | 0.00 | 0.00 | 0.00 | 54 | 1027.9 |
| 20260504015543 | 61 | 245 | 0.0 | 9.6 | 0.00 | 0.00 | 0.00 | 53 | 1028.0 |
| 20260504015042 | 61 | 235 | 0.9 | 9.6 | 0.00 | 0.00 | 0.00 | 53 | 1027.7 |
| 20260504014541 | 61 | 218 | 0.9 | 9.6 | 0.00 | 0.00 | 0.00 | 52 | 1027.6 |
| 20260504013009 | 61 | 224 | 0.9 | 9.6 | 0.00 | 0.00 | 0.00 | 51 | 1027.3 |
| 20260504011432 | 62 | 206 | 0.9 | 9.6 | 0.00 | 0.00 | 0.00 | 51 | 1027.3 |
| 20260504010931 | 62 | 214 | 0.9 | 9.6 | 0.00 | 0.00 | 0.00 | 50 | 1027.3 |
| 20260504010431 | 62 | 209 | 0.9 | 9.6 | 0.00 | 0.00 | 0.00 | 50 | 1027.1 |
| 20260504005930 | 63 | 207 | 0.0 | 9.6 | 0.00 | 0.00 | 0.00 | 49 | 1027.0 |
| 20260504004913 | 64 | 208 | 0.9 | 9.6 | 0.00 | 0.00 | 0.00 | 47 | 1027.3 |
| 20260504004412 | 64 | 211 | 0.9 | 9.6 | 0.00 | 0.00 | 0.00 | 47 | 1027.1 |
| 20260504003911 | 64 | 212 | 0.9 | 9.6 | 0.00 | 0.00 | 0.00 | 46 | 1027.1 |
| 20260504003407 | 65 | 211 | 0.9 | 9.6 | 0.00 | 0.00 | 0.00 | 45 | 1027.3 |
| 20260504002350 | 65 | 242 | 0.9 | 9.6 | 0.00 | 0.00 | 0.00 | 44 | 1027.4 |
| 20260504001849 | 66 | 240 | 1.7 | 9.6 | 0.00 | 0.00 | 0.00 | 43 | 1027.4 |
| 20260504001348 | 66 | 245 | 1.7 | 9.6 | 0.00 | 0.00 | 0.00 | 42 | 1027.3 |
| 20260504000847 | 67 | 248 | 0.9 | 9.6 | 0.00 | 0.00 | 0.00 | 42 | 1027.3 |
| 20260504000346 | 67 | 251 | 0.9 | 9.6 | 0.00 | 0.00 | 0.00 | 41 | 1027.0 |
| 20260503235845 | 68 | 257 | 0.9 | 9.6 | 0.00 | 0.00 | 0.00 | 40 | 1027.6 |
| 20260503235344 | 68 | 282 | 0.9 | 9.6 | 0.00 | 0.00 | 0.00 | 39 | 1027.6 |
| 20260503234843 | 69 | 263 | 0.9 | 9.6 | 0.00 | 0.00 | 0.00 | 39 | 1027.5 |
| 20260503234343 | 69 | 289 | 0.0 | 9.6 | 0.00 | 0.00 | 0.00 | 39 | 1027.7 |
| 20260503233841 | 69 | 294 | 1.7 | 9.6 | 0.00 | 0.00 | 0.00 | 40 | 1027.7 |
| 20260503233340 | 69 | 272 | 0.9 | 9.6 | 0.00 | 0.00 | 0.00 | 39 | 1027.7 |
| 20260503232839 | 69 | 293 | 0.9 | 9.6 | 0.00 | 0.00 | 0.00 | 39 | 1027.9 |
| 20260503232338 | 69 | 252 | 0.9 | 9.6 | 0.00 | 0.00 | 0.00 | 40 | 1027.9 |
| 20260503230805 | 69 | 285 | 0.0 | 9.6 | 0.00 | 0.00 | 0.00 | 38 | 1028.0 |
| 20260503230300 | 69 | 259 | 3.5 | 9.6 | 0.00 | 0.00 | 0.00 | 38 | 1028.1 |
| 20260503225759 | 69 | 294 | 0.9 | 9.6 | 0.00 | 0.00 | 0.00 | 38 | 1027.9 |
| 20260503225258 | 70 | 273 | 3.5 | 9.6 | 0.00 | 0.00 | 0.00 | 37 | 1027.7 |
| 20260503224757 | 70 | 270 | 0.9 | 9.6 | 0.00 | 0.00 | 0.00 | 38 | 1028.1 |
| 20260503224257 | 70 | 282 | 1.7 | 9.6 | 0.00 | 0.00 | 0.00 | 37 | 1028.2 |
| 20260503223239 | 70 | 235 | 3.5 | 9.6 | 0.00 | 0.00 | 0.00 | 37 | 1028.2 |
| 20260503222738 | 70 | 224 | 1.7 | 9.6 | 0.00 | 0.00 | 0.00 | 37 | 1028.1 |
| 20260503222238 | 69 | 265 | 1.7 | 9.6 | 0.00 | 0.00 | 0.00 | 37 | 1028.4 |
| 20260503221736 | 69 | 244 | 2.6 | 9.6 | 0.00 | 0.00 | 0.00 | 38 | 1028.2 |
| 20260503220720 | 69 | 315 | 3.5 | 9.6 | 0.00 | 0.00 | 0.00 | 36 | 1028.3 |
| 20260503220218 | 70 | 283 | 2.6 | 9.6 | 0.00 | 0.00 | 0.00 | 35 | 1028.3 |
| 20260503215717 | 70 | 240 | 2.6 | 9.6 | 0.00 | 0.00 | 0.00 | 35 | 1028.3 |
| 20260503214657 | 69 | 321 | 4.3 | 9.6 | 0.00 | 0.00 | 0.00 | 35 | 1028.4 |
| 20260503214157 | 69 | 314 | 3.5 | 9.6 | 0.00 | 0.00 | 0.00 | 36 | 1028.6 |
| 20260503212624 | 69 | 352 | 3.5 | 9.6 | 0.00 | 0.00 | 0.00 | 36 | 1028.8 |
| 20260503212123 | 69 | 338 | 3.5 | 9.6 | 0.00 | 0.00 | 0.00 | 35 | 1028.7 |
| 20260503211622 | 69 | 300 | 2.6 | 9.6 | 0.00 | 0.00 | 0.00 | 34 | 1028.4 |
| 20260503211122 | 69 | 290 | 3.5 | 9.6 | 0.00 | 0.00 | 0.00 | 33 | 1028.9 |
| 20260503210621 | 69 | 280 | 2.6 | 9.6 | 0.00 | 0.00 | 0.00 | 34 | 1029.1 |
| 20260503210120 | 68 | 236 | 1.7 | 9.6 | 0.00 | 0.00 | 0.00 | 35 | 1029.1 |
| 20260503205619 | 68 | 273 | 3.5 | 11.3 | 0.00 | 0.00 | 0.00 | 33 | 1028.9 |
| 20260503205118 | 68 | 322 | 3.5 | 11.3 | 0.00 | 0.00 | 0.00 | 33 | 1029.1 |
| 20260503202513 | 68 | 266 | 3.5 | 9.6 | 0.00 | 0.00 | 0.00 | 37 | 1029.3 |
| 20260503202012 | 68 | 313 | 2.6 | 9.6 | 0.00 | 0.00 | 0.00 | 37 | 1029.5 |
| 20260503201510 | 68 | 300 | 1.7 | 9.6 | 0.00 | 0.00 | 0.00 | 37 | 1029.6 |
| 20260503201010 | 68 | 257 | 4.3 | 9.6 | 0.00 | 0.00 | 0.00 | 37 | 1029.7 |
| 20260503200509 | 68 | 298 | 4.3 | 10.4 | 0.00 | 0.00 | 0.00 | 37 | 1030.2 |
| 20260503195449 | 67 | 283 | 3.5 | 10.4 | 0.00 | 0.00 | 0.00 | 37 | 1030.1 |
| 20260503194948 | 67 | 314 | 0.9 | 10.4 | 0.00 | 0.00 | 0.00 | 37 | 1030.2 |
| 20260503194447 | 67 | 308 | 2.6 | 10.4 | 0.00 | 0.00 | 0.00 | 40 | 1030.5 |
| 20260503193946 | 66 | 318 | 3.5 | 10.4 | 0.00 | 0.00 | 0.00 | 41 | 1030.5 |
| 20260503192938 | 66 | 338 | 7.0 | 11.3 | 0.00 | 0.00 | 0.00 | 39 | 1030.4 |
| 20260503191918 | 65 | 252 | 3.5 | 9.6 | 0.00 | 0.00 | 0.00 | 39 | 1030.8 |
| 20260503190901 | 66 | 311 | 3.5 | 9.6 | 0.00 | 0.00 | 0.00 | 38 | 1030.9 |
| 20260503190357 | 66 | 255 | 2.6 | 9.6 | 0.00 | 0.00 | 0.00 | 39 | 1031.4 |
| 20260503185856 | 66 | 332 | 1.7 | 9.6 | 0.00 | 0.00 | 0.00 | 41 | 1031.1 |
| 20260503185355 | 65 | 334 | 1.7 | 9.6 | 0.00 | 0.00 | 0.00 | 43 | 1030.9 |
| 20260503184854 | 65 | 295 | 1.7 | 9.6 | 0.00 | 0.00 | 0.00 | 43 | 1030.8 |
| 20260503184353 | 64 | 307 | 3.5 | 9.6 | 0.00 | 0.00 | 0.00 | 45 | 1030.9 |
| 20260503183849 | 64 | 342 | 2.6 | 10.4 | 0.00 | 0.00 | 0.00 | 44 | 1031.0 |
| 20260503183348 | 64 | 327 | 5.2 | 10.4 | 0.00 | 0.00 | 0.00 | 44 | 1031.1 |
| 20260503182847 | 64 | 272 | 1.7 | 9.6 | 0.00 | 0.00 | 0.00 | 44 | 1031.2 |
| 20260503182346 | 64 | 293 | 1.7 | 9.6 | 0.00 | 0.00 | 0.00 | 42 | 1031.2 |
| 20260503181845 | 64 | 282 | 1.7 | 9.6 | 0.00 | 0.00 | 0.00 | 43 | 1031.4 |
| 20260503181344 | 64 | 290 | 2.6 | 11.3 | 0.00 | 0.00 | 0.00 | 43 | 1031.5 |
| 20260503180327 | 63 | 126 | 1.7 | 11.3 | 0.00 | 0.00 | 0.00 | 46 | 1031.5 |
| 20260503175822 | 63 | 270 | 1.7 | 11.3 | 0.00 | 0.00 | 0.00 | 46 | 1031.4 |
| 20260503175317 | 63 | 300 | 1.7 | 11.3 | 0.00 | 0.00 | 0.00 | 47 | 1031.4 |
| 20260503174816 | 63 | 338 | 1.7 | 11.3 | 0.00 | 0.00 | 0.00 | 46 | 1031.7 |
| 20260503174315 | 63 | 233 | 2.6 | 11.3 | 0.00 | 0.00 | 0.00 | 48 | 1031.7 |
| 20260503173814 | 62 | 0 | 0.9 | 11.3 | 0.00 | 0.00 | 0.00 | 46 | 1032.0 |
| 20260503172758 | 62 | 207 | 0.0 | 11.3 | 0.00 | 0.00 | 0.00 | 48 | 1032.0 |
| 20260503172257 | 61 | 297 | 0.9 | 11.3 | 0.00 | 0.00 | 0.00 | 48 | 1031.9 |
| 20260503171756 | 61 | 317 | 0.9 | 11.3 | 0.00 | 0.00 | 0.00 | 49 | 1032.3 |
| 20260503171255 | 61 | 233 | 0.9 | 11.3 | 0.00 | 0.00 | 0.00 | 48 | 1032.3 |
| 20260503170754 | 61 | 248 | 3.5 | 11.3 | 0.00 | 0.00 | 0.00 | 50 | 1032.2 |
| 20260503170253 | 61 | 79 | 0.0 | 11.3 | 0.00 | 0.00 | 0.00 | 49 | 1032.3 |